Home   Weather   Topeka   Past weeks
Flag for USA

Past Weather in Topeka, Kansas, USA — Yesterday and Last 2 Weeks

Now
47 °F

Clear.


Feels Like: 47 °F
Forecast: 68 / 47 °F
Wind: No wind

Location: Philip Billard Municipal Airport

Current Time: Oct 23, 2019 at 5:30:37 am

Latest Report: Oct 23, 2019 at 4:53 am


Visibility: 10 mi

Pressure: 29.86 "Hg

Humidity: 64%

Dew Point: 35 °F

Location of TopekaLocation

Past Weather in Topeka — Graph

°F

Topeka Temperature Yesterday

Maximum temperature yesterday: 62 °F (at 4:53 pm)
Minimum temperature yesterday: 42 °F (at 10:53 pm)
Average temperature yesterday: 51 °F

High & Low Weather Summary for the Past Weeks

 TemperatureHumidityPressure
High76 °F (Oct 14, 2:53 pm)97% (Oct 14, 8:07 am)30.26 "Hg (Oct 14, 8:07 am)
Low28 °F (Oct 12, 6:53 am)18% (Oct 12, 3:53 pm)29.52 "Hg (Oct 21, 2:53 am)
Average54 °F65%29.91 "Hg
* Reported Oct 8 3:21 am — Oct 23 3:53 am, Topeka. Weather by CustomWeather, © 2019

Note: Actual official high and low records may vary slightly from our data, if they occured in-between our weather recording intervals... More about our weather records

Advertising

Topeka Weather History for the Previous 24 Hours

Scroll right to see more
 ConditionsComfort  
Time TempWeatherWind HumidityBarometerVisibility
3:53 am
Wed, Oct 23
47 °FClear.3 mph61%29.87 "Hg10 mi
2:53 am50 °FClear.6 mph54%29.89 "Hg10 mi
1:53 am45 °FClear.No wind71%29.90 "Hg10 mi
12:53 am47 °FClear.No wind64%29.91 "Hg10 mi
11:53 pm
Tue, Oct 22
45 °FPassing clouds.No wind65%29.94 "Hg10 mi
10:53 pm42 °FClear.No wind71%29.96 "Hg10 mi
9:53 pm46 °FClear.No wind61%29.96 "Hg10 mi
8:53 pm43 °FClear.No wind71%29.96 "Hg10 mi
7:53 pm47 °FClear.3 mph61%29.97 "Hg10 mi
6:53 pm55 °FClear.3 mph40%29.97 "Hg10 mi
5:53 pm60 °FScattered clouds.8 mph31%29.98 "Hg10 mi
4:53 pm62 °FScattered clouds.12 mph30%29.99 "Hg10 mi
3:53 pm60 °FPartly sunny.12 mph31%29.99 "Hg10 mi
2:53 pm61 °FSunny.15 mph30%29.99 "Hg10 mi
1:53 pm60 °FPassing clouds.16 mph31%30.01 "Hg10 mi
12:53 pm59 °FSunny.18 mph32%30.03 "Hg10 mi
11:53 am56 °FSunny.14 mph34%30.04 "Hg10 mi
11:18 am55 °FPassing clouds.14 mph35%30.04 "Hg10 mi
10:53 am53 °FSunny.14 mph43%30.04 "HgN/A
9:53 am49 °FSunny.13 mph48%30.04 "Hg10 mi
8:53 am46 °FSunny.12 mph51%30.02 "Hg10 mi
7:53 am44 °FSunny.13 mph55%30.00 "Hg10 mi
6:53 am45 °FClear.13 mph53%29.97 "Hg10 mi
5:53 am45 °FClear.9 mph56%29.96 "Hg10 mi
Weather by CustomWeather, © 2019

See weather overview